When you browse on this site, cookies collect data to enhance your experience and personalize the content and advertising you see.
Visit our Privacy Policy to learn more. By continuing to use the site, you agree to this use of cookies and data.
  • In Hungary
  • List of Countries
  • For 7 days
  • Water Temperature
  • Satellite Maps
  • Weather Map
  • News
  • Weather Widgets
  • user-avatar
    Login

    Hourly Weather Carrollton

    Today, 19 March, Tuesday

    Time Temperature Precipitation Wind Pressure Humidity
    00:00 +4°C° 0 mm 2 mps 740 mmHg 59%
    01:00 +3°C° 0 mm 2 mps 740 mmHg 61%
    02:00 +3°C° 0 mm 2 mps 740 mmHg 62%
    03:00 +2°C° 0 mm 2 mps 740 mmHg 63%
    04:00 +2°C° 0 mm 2 mps 740 mmHg 63%
    05:00 +2°C° 0 mm 2 mps 740 mmHg 63%
    06:00 +2°C° 0 mm 2 mps 741 mmHg 63%
    07:00 +4°C° 0 mm 2 mps 741 mmHg 55%
    08:00 +5°C° 0 mm 3 mps 741 mmHg 47%
    09:00 +8°C° 0 mm 4 mps 742 mmHg 39%
    10:00 +10°C° 0 mm 3 mps 742 mmHg 37%
    11:00 +12°C° 0 mm 3 mps 741 mmHg 35%
    12:00 +13°C° 0 mm 3 mps 741 mmHg 33%
    13:00 +14°C° 0 mm 3 mps 741 mmHg 33%
    14:00 +15°C° 0 mm 2 mps 740 mmHg 33%
    15:00 +15°C° 0 mm 2 mps 739 mmHg 33%
    16:00 +13°C° 0 mm 2 mps 739 mmHg 40%
    17:00 +11°C° 0 mm 1 mps 739 mmHg 46%
    18:00 +9°C° 0 mm 1 mps 739 mmHg 53%
    19:00 +9°C° 0 mm 1 mps 739 mmHg 56%
    20:00 +8°C° 0 mm 1 mps 740 mmHg 58%
    21:00 +7°C° 0 mm 1 mps 740 mmHg 61%
    22:00 +6°C° 0 mm 1 mps 740 mmHg 63%
    23:00 +6°C° 0 mm 1 mps 740 mmHg 65%

    Tomorrow, 20 March, Wednesday

    Time Temperature Precipitation Wind Pressure Humidity
    00:00 +6°C° 0 mm 1 mps 740 mmHg 67%
    01:00 +5°C° 0 mm 1 mps 740 mmHg 69%
    02:00 +5°C° 0 mm 1 mps 739 mmHg 70%
    03:00 +4°C° 0 mm 1 mps 739 mmHg 72%
    04:00 +4°C° 0 mm 1 mps 739 mmHg 73%
    05:00 +4°C° 0 mm 1 mps 739 mmHg 74%
    06:00 +3°C° 0 mm 1 mps 739 mmHg 74%
    07:00 +6°C° 0 mm 1 mps 740 mmHg 64%
    08:00 +8°C° 0 mm 2 mps 740 mmHg 54%
    09:00 +12°C° 0 mm 2 mps 740 mmHg 44%
    10:00 +13°C° 0 mm 2 mps 740 mmHg 40%
    11:00 +15°C° 0 mm 2 mps 739 mmHg 36%
    12:00 +16°C° 0 mm 2 mps 739 mmHg 32%
    13:00 +18°C° 0 mm 1 mps 738 mmHg 32%
    14:00 +18°C° 0 mm 1 mps 737 mmHg 31%
    15:00 +18°C° 0 mm 1 mps 736 mmHg 31%
    16:00 +15°C° 0 mm 1 mps 736 mmHg 37%
    17:00 +13°C° 0 mm 1 mps 735 mmHg 43%
    18:00 +11°C° 0 mm 1 mps 735 mmHg 49%
    19:00 +10°C° 0 mm 1 mps 735 mmHg 50%
    20:00 +9°C° 0 mm 1 mps 735 mmHg 52%
    21:00 +8°C° 0 mm 1 mps 735 mmHg 53%
    22:00 +8°C° 0 mm 1 mps 735 mmHg 53%
    23:00 +8°C° 0 mm 1 mps 735 mmHg 53%

    Day after tomorrow, 21 March, Thursday

    Time Temperature Precipitation Wind Pressure Humidity
    00:00 +9°C° 0 mm 1 mps 734 mmHg 53%
    01:00 +8°C° 0.1 mm 1 mps 734 mmHg 58%
    02:00 +8°C° 0.1 mm 1 mps 733 mmHg 63%
    03:00 +8°C° 0.1 mm 1 mps 733 mmHg 69%
    04:00 +8°C° 0.1 mm 1 mps 733 mmHg 75%
    05:00 +8°C° 0.1 mm 1 mps 733 mmHg 80%
    06:00 +7°C° 0.1 mm 2 mps 734 mmHg 86%
    07:00 +8°C° 0 mm 2 mps 734 mmHg 81%
    08:00 +9°C° 0 mm 3 mps 734 mmHg 76%
    09:00 +11°C° 0 mm 4 mps 734 mmHg 72%
    10:00 +11°C° 0 mm 4 mps 734 mmHg 69%
    11:00 +11°C° 0 mm 4 mps 734 mmHg 66%
    12:00 +12°C° 0 mm 4 mps 734 mmHg 63%
    13:00 +12°C° 0 mm 4 mps 734 mmHg 60%
    14:00 +13°C° 0 mm 4 mps 733 mmHg 57%
    15:00 +14°C° 0 mm 4 mps 733 mmHg 54%
    16:00 +12°C° 0 mm 4 mps 733 mmHg 60%
    17:00 +11°C° 0 mm 3 mps 733 mmHg 65%
    18:00 +10°C° 0 mm 3 mps 733 mmHg 71%
    19:00 +9°C° 0 mm 2 mps 734 mmHg 75%
    20:00 +8°C° 0 mm 2 mps 734 mmHg 80%
    21:00 +7°C° 0 mm 2 mps 735 mmHg 85%
    22:00 +6°C° 0 mm 2 mps 735 mmHg 87%
    23:00 +6°C° 0 mm 2 mps 735 mmHg 90%

    22 March, Friday

    Time Temperature Precipitation Wind Pressure Humidity
    00:00 +5°C° 0 mm 2 mps 735 mmHg 92%
    01:00 +5°C° 0 mm 2 mps 735 mmHg 93%
    02:00 +4°C° 0 mm 2 mps 735 mmHg 94%
    03:00 +4°C° 0 mm 2 mps 734 mmHg 95%
    04:00 +4°C° 0 mm 2 mps 735 mmHg 95%
    05:00 +3°C° 0 mm 2 mps 735 mmHg 95%
    06:00 +3°C° 0 mm 2 mps 735 mmHg 95%
    07:00 +6°C° 0 mm 2 mps 736 mmHg 82%
    08:00 +8°C° 0 mm 3 mps 736 mmHg 68%
    09:00 +11°C° 0 mm 3 mps 736 mmHg 55%
    10:00 +12°C° 0 mm 3 mps 736 mmHg 51%
    11:00 +14°C° 0 mm 3 mps 736 mmHg 46%
    12:00 +17°C° 0 mm 3 mps 736 mmHg 42%
    13:00 +17°C° 0 mm 4 mps 735 mmHg 42%
    14:00 +18°C° 0 mm 4 mps 735 mmHg 41%
    15:00 +18°C° 0 mm 4 mps 735 mmHg 41%
    16:00 +16°C° 0 mm 3 mps 735 mmHg 49%
    17:00 +13°C° 0 mm 3 mps 735 mmHg 58%
    18:00 +12°C° 0 mm 2 mps 735 mmHg 66%
    19:00 +10°C° 0 mm 2 mps 736 mmHg 70%
    20:00 +9°C° 0 mm 2 mps 736 mmHg 75%
    21:00 +8°C° 0 mm 2 mps 736 mmHg 79%
    22:00 +7°C° 0 mm 2 mps 736 mmHg 81%
    23:00 +7°C° 0 mm 2 mps 736 mmHg 83%

    23 March, Saturday

    Time Temperature Precipitation Wind Pressure Humidity
    00:00 +6°C° 0 mm 2 mps 736 mmHg 85%
    01:00 +6°C° 0 mm 2 mps 736 mmHg 86%
    02:00 +5°C° 0 mm 2 mps 736 mmHg 88%
    03:00 +5°C° 0 mm 2 mps 736 mmHg 90%
    04:00 +4°C° 0 mm 2 mps 737 mmHg 89%
    05:00 +4°C° 0 mm 2 mps 737 mmHg 88%
    06:00 +4°C° 0 mm 2 mps 737 mmHg 87%
    07:00 +7°C° 0 mm 2 mps 738 mmHg 73%
    08:00 +10°C° 0 mm 2 mps 738 mmHg 59%
    09:00 +14°C° 0 mm 2 mps 739 mmHg 46%
    10:00 +16°C° 0 mm 2 mps 739 mmHg 39%
    11:00 +20°C° 0 mm 1 mps 738 mmHg 33%
    12:00 +23°C° 0 mm 1 mps 738 mmHg 27%
    13:00 +23°C° 0 mm 1 mps 738 mmHg 26%
    14:00 +21°C° 0 mm 0 mps 737 mmHg 26%
    15:00 +21°C° 0 mm 0 mps 737 mmHg 26%
    16:00 +18°C° 0 mm 0 mps 737 mmHg 32%
    17:00 +15°C° 0 mm 0 mps 737 mmHg 38%
    18:00 +14°C° 0 mm 1 mps 736 mmHg 44%
    19:00 +13°C° 0 mm 1 mps 737 mmHg 47%
    20:00 +12°C° 0 mm 1 mps 737 mmHg 50%
    21:00 +11°C° 0 mm 1 mps 737 mmHg 54%
    22:00 +10°C° 0 mm 1 mps 737 mmHg 54%
    23:00 +10°C° 0 mm 1 mps 737 mmHg 55%

    24 March, Sunday

    Time Temperature Precipitation Wind Pressure Humidity
    00:00 +9°C° 0 mm 0 mps 736 mmHg 55%
    01:00 +9°C° 0 mm 0 mps 736 mmHg 56%
    02:00 +8°C° 0 mm 0 mps 736 mmHg 56%
    03:00 +8°C° 0 mm 0 mps 736 mmHg 57%
    04:00 +8°C° 0 mm 0 mps 736 mmHg 57%
    05:00 +8°C° 0 mm 0 mps 737 mmHg 58%
    06:00 +8°C° 0 mm 0 mps 737 mmHg 58%
    07:00 +12°C° 0 mm 1 mps 737 mmHg 53%
    08:00 +15°C° 0 mm 1 mps 737 mmHg 48%
    09:00 +18°C° 0 mm 2 mps 737 mmHg 42%
    10:00 +19°C° 0 mm 2 mps 737 mmHg 39%
    11:00 +20°C° 0 mm 2 mps 736 mmHg 36%
    12:00 +22°C° 0 mm 3 mps 736 mmHg 33%
    13:00 +22°C° 0 mm 3 mps 735 mmHg 34%
    14:00 +22°C° 0 mm 3 mps 734 mmHg 34%
    15:00 +22°C° 0 mm 3 mps 734 mmHg 35%
    16:00 +20°C° 0 mm 2 mps 733 mmHg 42%
    17:00 +18°C° 0 mm 2 mps 733 mmHg 50%
    18:00 +16°C° 0 mm 1 mps 733 mmHg 58%
    19:00 +16°C° 0 mm 1 mps 733 mmHg 60%
    20:00 +15°C° 0 mm 1 mps 733 mmHg 62%
    21:00 +14°C° 0 mm 1 mps 733 mmHg 64%
    22:00 +14°C° 0.1 mm 1 mps 732 mmHg 69%
    23:00 +13°C° 0.1 mm 1 mps 732 mmHg 74%
    Show more